Location: ?????
(33.0974°N, 35.7707°E)
Time: 12:23:23
(UTC+00:00)

Daily predictions for brighter satellites

Satellite Brightness Start Highest point End
(mag) Time Altitude Azimuth Time Altitude Azimuth Time Altitude Azimuth
CSL-04 Debris 4.2 16:18:07 10° SSE 16:23:34 73° ENE 16:29:02 10° N
Hubble Space Telescope 2.9 16:25:22 10° S 16:26:30 11° SSE 16:27:37 10° SE
STARLINK-1072 4.2 16:22:34 10° NW 16:26:37 57° SW 16:30:39 10° SSE
Cosmos 1626 2.1 16:23:09 10° N 16:26:50 64° E 16:30:29 10° SSE
Cosmos 1939 Rocket 3.0 16:24:03 10° S 16:28:00 79° WSW 16:31:54 10° NNW
Cosmos 1943 Rocket 2.9 16:23:54 10° N 16:28:54 33° ENE 16:33:54 10° SE
Cosmos 2369 Rocket 3.3 16:25:29 10° N 16:30:11 26° ENE 16:34:49 10° ESE
STARLINK-1096 4.4 16:27:35 10° NW 16:31:36 50° SW 16:35:35 10° SSE
USA 81 4.4 16:26:46 10° N 16:32:01 71° W 16:37:15 10° S
Cosmos 2084 Rocket 4.1 16:36:19 10° NNW 16:40:34 42° NE 16:44:35 11° SE
Cosmos 1818 3.6 16:35:31 10° SSW 16:40:51 63° ESE 16:46:14 10° NE
Cosmos 1953 2.4 16:38:35 10° SSE 16:42:23 49° E 16:46:15 10° NNE
Cosmos 2228 4.2 16:39:19 10° SE 16:42:31 21° E 16:45:44 10° NE
Meteor 2-15 Rocket 4.4 16:37:14 10° S 16:43:15 72° E 16:49:18 10° N
STARLINK-1103 4.4 16:39:58 10° NNW 16:43:49 36° NE 16:46:52 15° ESE
Cosmos 1943 3.1 16:42:27 10° S 16:48:02 71° ESE 16:53:42 10° NNE
STARLINK-1101 4.3 16:44:56 10° NNW 16:48:50 39° NE 16:51:41 17° ESE
Cosmos 1302 Rocket 4.3 16:44:52 10° NNW 16:50:08 73° WSW 16:55:23 10° S
CSL-04 Rocket 4.1 16:45:42 10° S 16:50:56 63° WSW 16:56:10 10° NNW
ARGOS Delta rocket 4.1 16:46:37 10° SSE 16:51:42 64° ENE 16:57:02 10° N
Cosmos 1470 4.0 16:49:14 10° SSW 16:52:56 44° W 16:56:41 10° N
Cosmos 1437 4.3 16:51:45 10° NE 16:53:40 16° ENE 16:53:40 16° ENE
STARLINK-1102 4.1 16:49:50 10° NNW 16:53:48 44° NE 16:56:26 19° ESE
CZ-2C R/B 3.4 16:49:15 10° SE 16:53:51 39° ENE 16:58:20 10° N
SEDSat Delta rocket 3.2 16:50:11 10° W 16:55:22 73° S 16:58:36 19° ESE
CZ-3A R/B 4.5 16:15:39 10° W 16:55:59 51° SSW 17:03:27 13° SE
STARLINK-1111 4.0 16:54:46 10° NNW 16:58:47 49° NE 17:01:13 21° ESE
STARLINK-1073 3.8 16:59:43 10° NW 17:03:47 54° NE 17:06:00 25° ESE
ATLAS 5 CENTAUR R/B 3.5 16:59:30 10° SSW 17:03:49 26° SSE 17:09:31 18° ESE
H-2A R/B 2.1 16:58:47 10° SSE 17:03:57 59° ENE 17:09:01 10° N
SJ-11-01 4.3 17:03:23 10° SSE 17:08:05 88° W 17:12:49 10° NNW
Aureole 2 Rocket 2.2 17:05:11 10° NNW 17:08:37 68° ENE 17:10:27 24° SSE
STARLINK-1121 3.7 17:04:40 10° NW 17:08:46 61° NE 17:10:47 28° ESE
Aureole 1 Rocket 4.5 17:04:58 10° S 17:12:54 56° ESE 17:19:31 10° NNE
STARLINK-1106 3.6 17:09:38 10° NW 17:13:46 68° NE 17:15:35 31° ESE
STARLINK-1112 3.5 17:14:34 10° NW 17:18:43 77° NE 17:20:21 35° SE
ARGOS 3.1 17:13:39 11° SSE 17:18:49 68° ENE 17:24:10 10° N
CZ-2C R/B 3.0 17:15:31 10° NNE 17:20:16 36° E 17:23:04 21° SSE
STARLINK-1128 3.5 17:19:32 10° NW 17:23:42 86° NE 17:25:08 40° SE
Cosmos 1726 2.7 17:20:32 10° SSW 17:24:12 60° W 17:27:54 10° N
Cosmos 2184 Rocket 3.9 17:19:29 10° N 17:25:43 65° E 17:30:50 15° SSE
Meteor 2-10 4.4 17:20:58 10° SSW 17:26:16 70° W 17:31:49 10° N
SJ-6B 2.8 17:26:24 31° SSE 17:28:18 73° ENE 17:32:24 10° N
STARLINK-1113 3.5 17:24:33 10° NW 17:28:41 85° SW 17:29:55 44° SE
Delta 128 4.4 17:24:40 10° WSW 17:29:09 43° S 17:30:46 33° SE
FALCON 9 DEB 3.0 17:27:16 10° SW 17:30:44 70° SE 17:30:52 69° ESE
MONITOR-E 4.2 17:31:24 60° W 17:31:24 60° W 17:33:57 10° NNW
STARLINK-1119 3.6 17:29:31 10° NW 17:33:38 76° SW 17:34:43 48° SSE
STARLINK-29 3.0 17:33:13 10° SW 17:36:07 71° WSW 17:36:07 71° WSW
USA 186 2.7 17:35:24 23° SSW 17:37:12 49° W 17:40:27 10° NNW
Ariane Rocket 3.7 17:32:26 10° S 17:37:22 52° W 17:42:18 10° NNW
ISS -3.8 17:34:04 10° NW 17:37:15 73° N 17:37:15 73° N
DMSP B5D2-2 3.9 17:32:54 10° NNE 17:38:07 68° ESE 17:43:19 10° S
STARLINK-1114 3.8 17:34:30 10° NW 17:38:36 67° SW 17:39:29 50° S
MOS 1 4.4 17:33:48 11° S 17:39:10 76° WSW 17:44:51 10° NNW
Cosmos 2058 Rocket 3.1 17:39:24 53° E 17:39:32 53° E 17:43:56 10° NNE
USA 234 3.1 17:33:47 10° NE 17:40:21 85° SE 17:46:53 10° SW
ATLAS 2AS CENTAUR R/B 3.5 17:34:01 10° NNW 17:40:40 34° NE 17:42:31 30° ENE
Nadezhda 1 Rocket 3.9 17:36:22 10° S 17:42:45 85° E 17:49:10 10° N
Resurs 01 Rocket 2.8 17:44:09 29° NE 17:44:09 29° NE 17:47:01 10° N
STARLINK-1130 (DARKSAT) 3.9 17:39:30 10° NW 17:43:34 60° SW 17:44:17 50° S
FREGAT/IRIS 4.2 17:44:20 26° WSW 17:44:43 27° W 17:47:07 10° NW
Cosmos 1190 Rocket 3.9 17:41:00 10° S 17:46:17 78° ESE 17:51:35 10° NNE
MOS 1 Rocket 3.5 17:42:10 10° NNE 17:47:35 75° E 17:51:59 16° S
Cosmos 1140 Rocket 3.3 17:42:46 10° S 17:47:54 68° ESE 17:53:04 10° NNE
Cosmos 2154 Rocket 4.0 17:41:42 10° N 17:47:59 61° E 17:50:02 42° SE
STARLINK-1084 4.1 17:44:31 10° NW 17:48:33 53° SW 17:49:05 49° SSW
ATLAS 5 CENTAUR R/B 1.6 17:48:47 10° SW 17:52:47 69° WNW 17:57:08 10° NNE
Cosmos 1726 Rocket 4.0 17:48:47 10° SSW 17:53:06 61° W 17:57:28 10° N
STARLINK-1098 4.2 17:49:33 10° NW 17:53:31 46° SW 17:53:52 45° SW
Cosmos 1340 Rocket 3.3 17:57:19 53° N 17:57:19 53° N 18:00:28 10° N
SL-24 R/B - RUBIN 2 4.5 17:51:29 10° SW 17:56:43 66° WNW 18:02:43 10° NNE
STARLINK-1123 4.5 17:54:34 10° WNW 17:58:29 41° SW 17:58:39 41° SW
Meteor 2-17 Rocket 4.3 17:59:38 10° N 18:05:49 85° E 18:07:23 53° SSE
SPOT 3 Rocket 3.7 18:05:02 50° S 18:06:21 73° WSW 18:11:34 10° NNW
Hubble Space Telescope 3.1 18:03:33 10° SW 18:04:26 15° SW 18:04:26 15° SW
Cosmos 1328 4.5 18:04:19 10° NNW 18:07:40 53° NW 18:07:40 53° NW
SL-8 R/B 4.0 18:07:03 10° NW 18:11:11 61° NNW 18:11:11 61° NNW
Cosmos 1943 Rocket 4.0 18:07:53 10° NW 18:12:25 26° WSW 18:16:39 11° SSW
Cosmos 1703 4.3 18:10:02 10° NNW 18:13:16 44° WNW 18:13:16 44° WNW
Cosmos 2369 Rocket 3.5 18:09:06 10° NW 18:14:12 36° WSW 18:17:05 22° SSW
COSMOS 2455 4.1 18:09:20 10° N 18:13:30 27° NE 18:13:30 27° NE
NOSS 3-4 (A) 4.0 18:52:16 10° NNW 18:58:54 75° WNW 18:58:54 75° WNW
NOSS 3-4 (C) 4.0 18:52:23 10° NNW 18:58:59 75° NW 18:58:59 75° NW
ATLAS 2AS CENTAUR R/B 3.9 19:24:55 10° NW 19:29:59 37° WNW 19:29:59 37° WNW
Cosmos 2227 Rocket 4.2 23:49:33 24° NE 23:49:33 24° NE 23:52:05 10° NE
